Wind_Speed
20 20 20 19 20 21 22 23 23 24 23 24 25 25 24 25 25 26 28 30 31 33 34 34 35 37 37 37 38 39 40 41 41 43 43 43 43 43 44 44 44 45 45 45
21 20 20 20 20 21 22 23 23 23 23 24 24 24 24 24 25 25 26 28 29 31 32 34 35 37 37 37 38 39 40 40 41 43 44 44 43 44 45 45 45 46 46 45
22 21 21 21 20 21 23 23 23 23 23 23 24 23 23 23 24 25 25 26 28 29 31 32 33 35 36 36 37 38 40 41 41 43 43 43 44 44 45 45 45 46 45 45
22 21 22 22 21 22 22 22 23 22 22 22 23 24 22 22 23 23 24 25 27 29 31 31 33 34 36 36 36 37 38 39 40 40 41 41 41 42 44 45 46 46 45 45
22 22 22 22 22 22 22 22 22 22 22 22 21 23 21 21 22 23 24 25 26 28 30 31 33 34 35 35 35 37 37 37 38 38 39 40 41 42 42 44 46 46 45 44
23 23 22 22 22 22 22 21 21 22 21 21 20 22 21 20 21 22 23 25 26 28 29 30 31 33 34 34 35 38 38 38 39 39 39 40 42 43 44 44 45 46 45 46
23 23 23 22 22 22 22 21 21 21 21 21 20 21 21 21 22 23 23 24 25 27 28 28 29 30 32 34 34 35 36 37 39 39 39 40 42 43 43 44 44 44 44 45
24 23 22 22 22 21 21 21 21 22 21 22 22 22 22 21 22 23 24 25 25 26 27 28 29 30 32 33 34 34 36 37 38 39 39 40 40 42 43 43 44 44 44 44
25 24 23 22 21 21 21 21 21 22 22 23 22 22 22 22 22 23 25 25 25 26 27 28 30 31 33 34 34 35 35 35 36 38 39 40 41 41 42 43 44 45 45 44
25 25 23 23 22 22 22 21 21 22 22 23 23 23 22 22 23 24 25 26 26 27 28 29 30 31 33 33 34 35 36 36 37 38 38 39 40 41 41 42 42 44 44 43
24 25 24 23 23 22 21 21 21 22 23 24 24 24 23 23 23 25 26 27 27 28 29 30 31 32 33 33 33 33 35 36 37 38 39 40 40 41 42 42 43 42 43 45
23 22 23 23 23 23 22 22 22 23 24 24 25 25 24 23 23 25 26 27 28 29 30 31 31 32 33 33 33 33 34 35 37 38 38 39 40 41 41 42 43 43 44 45
22 22 23 23 23 23 22 22 22 23 24 24 25 25 25 25 24 25 27 28 29 30 31 31 32 32 33 33 33 33 34 35 35 36 38 39 40 41 41 41 43 44 44 44
22 22 22 22 23 23 23 22 22 23 24 25 24 25 25 25 26 26 26 27 28 29 29 31 31 31 32 32 33 33 33 34 35 36 37 39 40 41 41 41 43 43 42 43
22 22 21 21 21 22 22 23 23 23 24 25 24 25 25 27 27 27 27 27 27 28 28 28 29 30 31 31 32 32 32 33 34 35 36 38 39 40 41 42 42 43 43 43
22 22 21 21 21 22 23 22 22 22 23 24 25 25 26 27 27 27 26 26 26 26 27 28 28 29 29 30 31 31 32 33 33 34 35 36 37 38 40 41 41 42 42 42
22 23 22 22 22 23 22 21 21 22 22 24 25 25 25 26 27 26 25 25 25 25 26 27 28 28 29 30 30 31 31 31 32 33 34 34 36 37 38 38 38 40 39 39
21 22 23 22 22 22 20 20 21 21 22 24 24 25 26 27 27 26 26 26 26 26 27 27 27 28 28 29 29 29 29 30 31 32 32 32 33 34 35 36 37 37 36 37
19 21 22 23 23 22 20 20 20 21 22 23 23 24 26 26 27 26 27 27 27 27 27 27 28 28 28 28 28 29 29 29 30 30 31 31 32 32 33 34 34 34 34 34
19 20 21 22 23 23 20 21 21 22 22 22 23 24 24 25 26 26 27 27 27 27 27 28 28 28 28 28 28 28 28 28 28 28 28 30 31 31 31 31 31 30 30 29
19 20 21 22 23 22 21 21 21 23 23 23 23 23 24 25 25 26 26 27 27 27 28 28 29 29 29 29 28 28 28 28 27 27 27 28 28 29 29 28 27 27 27 27
20 21 21 21 22 21 21 21 22 23 23 23 23 23 24 24 25 26 27 27 27 28 28 28 28 28 28 28 28 27 27 27 26 26 26 26 25 25 25 25 25 25 26 26
22 22 22 22 22 21 21 22 22 23 23 23 23 24 25 25 25 26 27 27 28 28 29 28 27 27 27 27 27 26 26 25 25 25 24 23 23 23 23 23 23 24 25 25
22 22 22 22 21 22 22 22 23 23 23 24 24 24 25 25 25 26 26 27 28 28 28 28 27 26 26 26 25 25 24 24 24 23 22 22 22 21 21 22 22 23 23 24
22 22 22 22 22 22 22 22 23 22 23 24 24 24 24 25 25 26 27 27 28 27 27 27 26 26 25 25 25 24 23 23 23 22 21 21 21 21 21 22 23 23 23 22
21 22 22 22 22 23 23 23 23 23 24 24 24 24 24 25 25 26 26 27 27 27 26 25 26 26 25 25 24 23 22 22 22 22 21 21 20 20 20 21 21 20 19 19
Wind_Direction
280 277 277 276 275 274 273 273 274 273 271 272 272 273 271 270 269 266 262 259 255 254 254 254 253 251 253 252 250 251 252 252 252 252 252 252 251 252 252 253 254 254 255 257
279 277 277 276 276 276 275 274 274 273 272 273 274 271 271 269 269 268 268 262 257 255 255 255 254 253 254 253 251 252 253 253 253 253 253 252 252 252 253 253 254 254 255 257
279 278 276 275 275 276 275 276 275 275 274 275 276 272 270 269 268 269 269 266 261 259 258 256 255 254 255 255 253 252 252 253 254 253 254 252 252 253 253 253 253 254 256 257
277 276 275 275 275 276 275 276 277 277 276 276 276 274 271 272 270 269 268 266 264 262 261 260 257 255 256 257 256 254 253 253 253 253 253 252 252 252 252 253 253 254 254 256
278 277 277 275 276 276 275 276 277 277 275 276 277 278 275 272 271 271 270 269 267 266 265 263 261 259 258 258 257 255 254 253 254 254 253 253 252 254 255 255 255 254 254 255
277 277 277 277 276 275 275 275 275 276 275 275 276 277 278 275 275 275 273 271 269 267 265 264 263 261 260 259 259 258 254 254 255 254 255 255 254 254 256 258 257 255 255 256
274 274 276 277 277 274 273 274 276 277 276 276 276 277 280 278 276 275 275 273 272 269 268 267 266 263 262 261 262 259 256 257 256 255 256 257 255 256 257 259 259 256 257 258
275 275 276 277 277 275 273 273 276 278 280 278 276 278 280 280 277 276 276 277 276 274 272 269 268 266 265 263 265 261 259 259 257 257 256 258 258 258 258 259 259 258 258 259
278 275 275 274 274 275 273 273 275 278 281 282 280 282 282 282 280 278 277 279 278 277 276 272 269 268 267 267 265 262 260 259 259 259 259 261 261 262 261 259 259 259 259 261
279 276 273 272 272 273 274 275 275 277 282 284 282 283 286 286 284 282 280 279 279 278 277 276 274 273 273 270 267 263 262 260 260 261 262 263 264 264 264 262 260 259 260 262
276 274 272 269 271 273 272 273 275 276 278 281 284 283 287 287 286 285 284 282 280 277 277 276 275 274 275 272 271 267 264 264 263 264 264 266 266 266 266 266 263 262 262 262
276 273 272 270 270 272 272 275 276 276 278 280 283 285 286 288 285 283 283 284 282 280 278 278 277 276 277 276 274 270 267 266 266 266 266 266 267 266 266 267 265 264 263 264
272 271 273 271 269 270 271 273 276 277 277 279 284 287 287 288 287 285 283 283 282 281 280 280 280 280 280 280 276 273 271 269 269 270 268 267 267 267 268 267 267 266 266 267
268 267 270 272 273 274 274 274 276 278 278 280 283 287 289 288 288 287 286 284 283 282 282 281 281 281 282 282 278 274 273 271 272 272 271 269 269 268 268 269 269 268 269 270
266 266 268 270 272 275 275 274 276 278 280 281 283 284 289 289 288 288 288 288 286 285 284 284 283 282 283 283 281 277 276 274 274 273 272 271 270 270 270 270 269 269 269 271
267 268 270 270 271 274 274 274 276 279 281 281 283 286 288 290 290 289 288 288 289 289 288 287 287 286 285 284 282 282 280 279 276 275 274 273 272 272 273 271 271 270 270 271
272 271 271 271 271 272 272 275 276 278 282 284 284 287 287 289 290 290 289 288 289 290 290 290 289 289 288 286 285 284 283 282 280 278 277 275 274 274 275 274 274 272 270 271
276 274 274 274 272 271 274 274 275 278 281 284 287 288 288 288 289 289 289 289 290 290 291 291 291 291 291 290 288 287 286 284 282 280 278 276 275 275 275 274 273 271 270 270
278 277 275 274 274 275 275 277 277 280 282 284 288 290 291 290 290 288 288 290 291 290 290 291 291 292 291 290 289 288 287 287 285 283 280 278 276 277 276 275 273 272 271 271
281 280 278 276 274 274 278 278 278 281 284 286 289 289 291 291 291 291 290 291 291 290 290 291 291 291 291 290 290 289 290 289 287 285 284 282 279 279 278 276 275 274 273 272
280 280 279 277 275 275 278 280 281 282 286 288 289 290 291 290 291 292 291 290 291 291 292 292 292 292 291 290 291 291 291 290 289 287 286 285 284 281 278 275 274 273 273 272
280 280 279 278 275 278 278 279 282 285 287 288 289 291 293 293 292 292 292 291 291 291 292 293 293 294 293 293 292 292 291 291 290 290 289 287 286 283 280 275 272 272 273 273
279 281 280 280 278 276 276 278 282 287 288 288 288 290 292 293 293 293 293 292 291 291 291 291 293 295 294 294 294 293 293 292 291 291 289 288 287 285 281 278 276 274 276 275
280 280 280 280 280 276 275 279 283 287 288 289 289 289 291 293 294 293 293 293 292 291 291 291 291 293 294 295 296 294 293 293 293 292 289 286 285 285 283 280 280 279 279 278
282 280 280 281 282 280 278 279 281 285 288 290 290 289 290 291 292 293 293 293 293 292 291 291 290 291 293 295 295 295 294 293 292 291 289 286 284 283 283 284 282 280 279 276
283 282 281 282 282 280 278 278 282 284 287 289 289 289 290 291 293 294 294 294 294 293 292 292 291 292 293 293 295 294 294 294 293 290 288 285 285 283 285 287 286 283 279 275
Height
5681 5682 5680 5680 5679 5679 5678 5678 5678 5678 5678 5677 5677 5677 5677 5677 5677 5677 5678 5679 5680 5682 5684 5685 5688 5690 5692 5694 5697 5700 5702 5704 5706 5708 5710 5713 5715 5717 5719 5721 5724 5726 5728 5730
5677 5676 5676 5674 5674 5673 5673 5672 5672 5672 5672 5672 5671 5671 5671 5671 5671 5671 5671 5671 5672 5674 5676 5677 5679 5681 5683 5685 5687 5689 5691 5693 5695 5697 5699 5702 5704 5706 5708 5711 5713 5715 5717 5719
5671 5671 5670 5669 5669 5668 5667 5667 5667 5666 5666 5666 5665 5665 5665 5665 5665 5665 5665 5665 5666 5667 5668 5669 5670 5672 5674 5675 5677 5679 5681 5683 5685 5686 5688 5691 5693 5695 5697 5700 5702 5704 5706 5708
5665 5665 5665 5664 5664 5663 5662 5662 5661 5661 5660 5660 5660 5659 5660 5660 5660 5660 5660 5660 5660 5660 5661 5661 5662 5663 5665 5666 5668 5669 5671 5673 5674 5675 5678 5680 5682 5685 5687 5689 5691 5693 5695 5698
5660 5660 5660 5659 5659 5657 5657 5657 5657 5656 5655 5655 5655 5654 5655 5654 5654 5655 5655 5655 5654 5654 5654 5655 5655 5655 5656 5658 5659 5660 5662 5663 5665 5665 5668 5670 5672 5674 5676 5678 5681 5683 5685 5686
5655 5654 5654 5653 5653 5652 5652 5652 5651 5651 5650 5650 5650 5649 5649 5649 5649 5649 5649 5649 5648 5648 5648 5649 5649 5649 5649 5650 5650 5651 5653 5654 5655 5657 5658 5660 5662 5664 5666 5668 5670 5672 5674 5675
5649 5648 5648 5647 5647 5647 5647 5647 5646 5645 5645 5645 5645 5644 5644 5644 5644 5644 5643 5643 5642 5642 5642 5642 5642 5642 5642 5643 5643 5643 5644 5645 5646 5647 5649 5650 5652 5653 5655 5657 5659 5661 5663 5664
5642 5643 5642 5642 5642 5641 5641 5641 5642 5641 5640 5640 5640 5639 5640 5640 5639 5638 5637 5637 5636 5636 5636 5636 5636 5635 5635 5634 5634 5634 5635 5636 5637 5638 5639 5640 5642 5643 5645 5646 5648 5650 5651 5653
5636 5636 5637 5636 5636 5636 5636 5636 5636 5636 5635 5635 5634 5634 5635 5634 5633 5632 5631 5630 5629 5629 5629 5628 5628 5628 5627 5626 5626 5626 5626 5627 5628 5629 5629 5630 5632 5633 5634 5635 5637 5638 5639 5640
5630 5630 5631 5631 5631 5631 5631 5631 5631 5630 5629 5628 5629 5629 5629 5628 5627 5627 5626 5624 5623 5623 5622 5621 5621 5620 5619 5618 5617 5617 5617 5618 5619 5619 5620 5621 5622 5622 5623 5624 5625 5627 5628 5629
5624 5624 5625 5625 5625 5625 5625 5625 5625 5624 5624 5624 5623 5625 5623 5622 5621 5620 5619 5618 5617 5616 5614 5613 5613 5612 5610 5609 5608 5607 5608 5608 5609 5609 5610 5610 5611 5611 5612 5613 5614 5615 5616 5617
5617 5618 5618 5619 5619 5619 5619 5619 5619 5619 5619 5618 5617 5620 5617 5616 5615 5614 5612 5611 5609 5608 5607 5605 5604 5603 5602 5600 5599 5599 5599 5599 5599 5599 5599 5600 5600 5601 5601 5602 5602 5604 5605 5605
5611 5612 5612 5612 5614 5614 5613 5613 5613 5613 5613 5612 5612 5614 5611 5609 5608 5607 5606 5604 5602 5600 5599 5597 5595 5594 5593 5591 5590 5589 5589 5589 5589 5589 5589 5589 5589 5590 5590 5590 5591 5591 5592 5593
5605 5605 5607 5607 5606 5607 5607 5607 5607 5607 5606 5606 5606 5606 5605 5603 5602 5600 5598 5596 5594 5592 5591 5589 5587 5585 5584 5582 5581 5580 5579 5579 5579 5579 5578 5578 5578 5578 5579 5579 5579 5579 5580 5580
5599 5599 5600 5600 5600 5600 5601 5602 5601 5601 5600 5600 5600 5599 5598 5596 5594 5593 5591 5589 5587 5585 5583 5581 5579 5577 5576 5574 5572 5571 5570 5569 5569 5569 5568 5568 5567 5567 5567 5567 5567 5567 5567 5568
5593 5594 5594 5595 5595 5594 5595 5596 5595 5595 5594 5593 5593 5592 5591 5589 5587 5586 5584 5583 5581 5578 5576 5574 5572 5570 5567 5565 5564 5562 5561 5559 5559 5558 5557 5557 5556 5556 5555 5555 5555 5555 5555 5556
5587 5588 5588 5589 5588 5588 5590 5591 5589 5589 5588 5588 5586 5587 5584 5582 5580 5579 5577 5576 5574 5572 5569 5567 5564 5562 5560 5558 5556 5554 5552 5550 5549 5548 5547 5546 5546 5545 5545 5544 5544 5543 5543 5544
5582 5582 5581 5582 5583 5582 5586 5584 5583 5583 5582 5581 5580 5579 5577 5575 5574 5572 5570 5569 5567 5565 5563 5560 5558 5555 5553 5550 5548 5546 5544 5542 5540 5539 5537 5536 5536 5535 5535 5534 5533 5532 5532 5532
5577 5576 5576 5576 5575 5576 5579 5578 5577 5577 5577 5575 5574 5572 5570 5568 5567 5566 5564 5562 5560 5558 5556 5554 5551 5548 5546 5543 5540 5538 5536 5534 5532 5530 5528 5527 5526 5525 5524 5523 5523 5522 5522 5522
5572 5571 5571 5570 5569 5570 5573 5572 5570 5571 5570 5569 5567 5565 5564 5562 5561 5560 5557 5555 5553 5551 5549 5547 5544 5541 5538 5536 5533 5531 5528 5526 5523 5521 5520 5519 5517 5516 5515 5514 5514 5513 5513 5513
5567 5566 5566 5565 5563 5564 5566 5565 5565 5565 5565 5563 5561 5559 5557 5555 5554 5553 5550 5548 5546 5544 5542 5539 5537 5534 5531 5528 5526 5523 5521 5518 5516 5514 5512 5510 5509 5508 5507 5506 5505 5505 5505 5504
5561 5561 5560 5559 5559 5561 5560 5559 5559 5559 5557 5555 5554 5552 5551 5549 5547 5545 5543 5541 5539 5537 5534 5532 5529 5527 5524 5520 5518 5516 5514 5511 5509 5507 5505 5503 5502 5500 5499 5498 5498 5497 5497 5497
5556 5556 5555 5555 5556 5555 5553 5553 5552 5551 5550 5549 5547 5546 5544 5542 5540 5538 5536 5534 5531 5529 5527 5525 5522 5520 5517 5514 5511 5509 5507 5504 5502 5500 5498 5497 5495 5494 5492 5492 5491 5491 5490 5489
5551 5550 5549 5549 5549 5548 5547 5547 5546 5545 5543 5542 5540 5539 5537 5535 5533 5531 5529 5527 5524 5522 5520 5518 5516 5514 5511 5508 5505 5502 5500 5498 5496 5494 5492 5491 5489 5488 5487 5486 5485 5484 5483 5483
5545 5544 5543 5543 5543 5542 5541 5540 5539 5538 5537 5535 5534 5532 5530 5528 5526 5524 5522 5520 5517 5515 5513 5511 5509 5507 5505 5502 5499 5496 5494 5492 5490 5488 5486 5485 5484 5483 5482 5480 5479 5478 5477 5476
5539 5538 5538 5537 5537 5536 5535 5534 5533 5532 5531 5529 5527 5525 5523 5522 5520 5517 5515 5513 5510 5508 5506 5504 5502 5500 5498 5495 5493 5490 5488 5486 5484 5482 5481 5479 5478 5477 5476 5475 5474 5472 5472 5471